�v������,���r���O(���x),�����t���O,���r���O(���x),�����t���O,��1(���x),�����t���O,�������x,�����t���O,�C�ۑ�(���x),�����t���O,�C�ۑ�(���x),�����t���O
12/1/2004 0:00,20.7,0,45.9,0,20.6,0,OVER,0,11.1,0,60.8,0
12/1/2004 0:15,21,0,45,0,20.6,0,OVER,0,10.9,0,61.3,0
12/1/2004 0:30,21.1,0,45.5,0,20.5,0,OVER,0,10.7,0,61.8,0
12/1/2004 0:45,21.2,0,44.8,0,20.6,0,OVER,0,10.6,0,62.3,0
12/1/2004 1:00,21.3,0,44.7,0,20.6,0,OVER,0,10.4,0,62.8,0
12/1/2004 1:15,21.4,0,43.6,0,20.6,0,OVER,0,10.4,0,59.3,0
12/1/2004 1:30,21.4,0,43.3,0,20.7,0,OVER,0,10.4,0,55.8,0
12/1/2004 1:45,21.5,0,42.8,0,20.7,0,OVER,0,10.4,0,52.3,0
12/1/2004 2:00,21.6,0,42.9,0,20.7,0,OVER,0,10.4,0,48.8,0
12/1/2004 2:15,21.7,0,42.7,0,20.8,0,OVER,0,10.2,0,48.3,0
12/1/2004 2:30,21.7,0,42.1,0,20.8,0,OVER,0,10.1,0,47.8,0
12/1/2004 2:45,21.8,0,41.7,0,20.9,0,OVER,0,9.9,0,47.3,0
12/1/2004 3:00,21.8,0,42.3,0,20.9,0,OVER,0,9.8,0,46.8,0
12/1/2004 3:15,21.8,0,42.4,0,20.9,0,OVER,0,9.7,0,47,0
12/1/2004 3:30,21.9,0,42.7,0,20.9,0,OVER,0,9.5,0,47.3,0
12/1/2004 3:45,21.9,0,46.5,0,20.9,0,OVER,0,9.4,0,47.5,0
12/1/2004 4:00,22,0,48.4,0,21,0,OVER,0,9.3,0,47.8,0
12/1/2004 4:15,22,0,50.7,0,21,0,OVER,0,9.2,0,48.3,0
12/1/2004 4:30,22,0,51,0,21.1,0,OVER,0,9.1,0,48.8,0
12/1/2004 4:45,22,0,51.2,0,21.1,0,OVER,0,9.1,0,49.3,0
12/1/2004 5:00,22,0,51.7,0,21.1,0,OVER,0,9,0,49.8,0
12/1/2004 5:15,22.1,0,53.2,0,21.2,0,OVER,0,8.9,0,50.3,0
12/1/2004 5:30,22.1,0,51.5,0,21.2,0,OVER,0,8.9,0,50.8,0
12/1/2004 5:45,22,0,49.1,0,21.2,0,OVER,0,8.8,0,51.3,0
12/1/2004 6:00,22,0,47.3,0,21.1,0,OVER,0,8.8,0,51.8,0
12/1/2004 6:15,22,0,46.3,0,21.1,0,OVER,0,8.6,0,51.8,0
12/1/2004 6:30,22,0,45.9,0,21.1,0,OVER,0,8.4,0,51.8,0
12/1/2004 6:45,22,0,45.4,0,21.1,0,OVER,0,8.3,0,51.8,0
12/1/2004 7:00,21.9,0,45.1,0,21,0,OVER,0,8.1,0,51.8,0
12/1/2004 7:15,21.9,0,45.6,0,20.5,0,OVER,0,8,0,53.3,0
12/1/2004 7:30,21.8,0,45.8,0,20,0,OVER,0,7.9,0,54.8,0
12/1/2004 7:45,21.6,0,46.6,0,19.7,0,OVER,0,7.9,0,56.3,0
12/1/2004 8:00,21.2,0,47.2,0,19.5,0,OVER,0,7.8,0,57.8,0
12/1/2004 8:15,20.6,0,47.3,0,19.4,0,OVER,0,7.9,0,57.5,0
12/1/2004 8:30,19.8,0,50.2,0,19.2,0,OVER,0,8.1,0,57.3,0
12/1/2004 8:45,19.4,0,50.9,0,19.1,0,OVER,0,8.2,0,57,0
12/1/2004 9:00,19.1,0,51.3,0,19.1,0,OVER,0,8.4,0,56.8,0
12/1/2004 9:15,18.9,0,52,0,19.2,0,OVER,0,8.9,0,54.8,0
12/1/2004 9:30,18.7,0,52.2,0,19.3,0,OVER,0,9.4,0,52.8,0
12/1/2004 9:45,18.5,0,52.6,0,19.4,0,OVER,0,9.9,0,50.8,0
12/1/2004 10:00,18.4,0,52.8,0,19.4,0,OVER,0,10.4,0,48.8,0
12/1/2004 10:15,18.3,0,53.1,0,19.5,0,OVER,0,10.8,0,45.5,0
12/1/2004 10:30,18.3,0,53.1,0,19.6,0,OVER,0,11.2,0,42.3,0
12/1/2004 10:45,18.2,0,53,0,19.7,0,OVER,0,11.7,0,39,0
12/1/2004 11:00,18.2,0,53,0,19.8,0,OVER,0,12.1,0,35.8,0
12/1/2004 11:15,18.2,0,52.9,0,20,0,OVER,0,12.4,0,34.8,0
12/1/2004 11:30,18.3,0,52.6,0,20.2,0,OVER,0,12.7,0,33.8,0
12/1/2004 11:45,18.3,0,52.3,0,20.4,0,OVER,0,13,0,32.8,0
12/1/2004 12:00,18.4,0,52.2,0,20.6,0,OVER,0,13.3,0,31.8,0
12/1/2004 12:15,18.4,0,51.7,0,20.8,0,OVER,0,13.7,0,30.8,0
12/1/2004 12:30,18.5,0,51.4,0,21,0,OVER,0,14.1,0,29.8,0
12/1/2004 12:45,18.6,0,50.9,0,21.2,0,OVER,0,14.5,0,28.8,0
12/1/2004 13:00,18.6,0,50.9,0,21.4,0,OVER,0,14.9,0,27.8,0
12/1/2004 13:15,18.7,0,50.4,0,21.6,0,OVER,0,14.9,0,28,0
12/1/2004 13:30,18.8,0,50.3,0,21.8,0,OVER,0,14.9,0,28.3,0
12/1/2004 13:45,18.9,0,49.9,0,22.1,0,OVER,0,14.9,0,28.5,0
12/1/2004 14:00,19.1,0,49.8,0,22.3,0,OVER,0,14.9,0,28.8,0
12/1/2004 14:15,19.2,0,49.2,0,22.4,0,OVER,0,14.9,0,28.5,0
12/1/2004 14:30,19.4,0,48.3,0,22.6,0,OVER,0,14.9,0,28.3,0
12/1/2004 14:45,19.5,0,48,0,22.7,0,OVER,0,15,0,28,0
12/1/2004 15:00,19.5,0,47.9,0,22.7,0,OVER,0,15,0,27.8,0
12/1/2004 15:15,19.5,0,48.3,0,22.7,0,OVER,0,14.9,0,28.5,0
12/1/2004 15:30,19.5,0,48.1,0,22.7,0,OVER,0,14.8,0,29.3,0
12/1/2004 15:45,19.5,0,47.8,0,22.6,0,OVER,0,14.7,0,30,0
12/1/2004 16:00,19.4,0,47.9,0,22.6,0,OVER,0,14.6,0,30.8,0
12/1/2004 16:15,19.3,0,47.9,0,22.4,0,OVER,0,14.2,0,33,0
12/1/2004 16:30,19.2,0,48.1,0,22.3,0,OVER,0,13.8,0,35.3,0
12/1/2004 16:45,19,0,48.1,0,22.1,0,OVER,0,13.4,0,37.5,0
12/1/2004 17:00,18.9,0,48.1,0,21.9,0,OVER,0,13,0,39.8,0
12/1/2004 17:15,18.8,0,47.7,0,21.8,0,OVER,0,12.9,0,40.3,0
12/1/2004 17:30,18.9,0,48.1,0,21.6,0,OVER,0,12.8,0,40.8,0
12/1/2004 17:45,18.9,0,48,0,21.5,0,OVER,0,12.7,0,41.3,0
12/1/2004 18:00,18.8,0,48.5,0,21.3,0,OVER,0,12.6,0,41.8,0
12/1/2004 18:15,19.5,0,49.3,0,21.3,0,OVER,0,12.7,0,42.5,0
12/1/2004 18:30,20,0,48.5,0,21.2,0,OVER,0,12.9,0,43.3,0
12/1/2004 18:45,20.4,0,47.9,0,21.2,0,OVER,0,13,0,44,0
12/1/2004 19:00,20.3,0,47.3,0,21.1,0,OVER,0,13.2,0,44.8,0
12/1/2004 19:15,20.2,0,46.9,0,21,0,OVER,0,12.8,0,47,0
12/1/2004 19:30,20,0,46.8,0,20.8,0,OVER,0,12.3,0,49.3,0
12/1/2004 19:45,19.9,0,46.8,0,20.7,0,OVER,0,11.9,0,51.5,0
12/1/2004 20:00,19.7,0,46.9,0,20.5,0,OVER,0,11.5,0,53.8,0
12/1/2004 20:15,19.6,0,46.9,0,20.3,0,OVER,0,11.6,0,52.5,0
12/1/2004 20:30,19.4,0,47,0,20.2,0,OVER,0,11.7,0,51.3,0
12/1/2004 20:45,19.3,0,47.9,0,20.1,0,OVER,0,11.9,0,50,0
12/1/2004 21:00,19.2,0,48.4,0,20,0,OVER,0,12,0,48.8,0
12/1/2004 21:15,19.2,0,48.9,0,19.9,0,OVER,0,11.9,0,48.8,0
12/1/2004 21:30,19.7,0,48.1,0,19.9,0,OVER,0,11.8,0,48.8,0
12/1/2004 21:45,20,0,50.8,0,19.9,0,OVER,0,11.8,0,48.8,0
12/1/2004 22:00,20.3,0,50.2,0,19.9,0,OVER,0,11.7,0,48.8,0
12/1/2004 22:15,20.5,0,49.7,0,20,0,OVER,0,11.4,0,50,0
12/1/2004 22:30,20.8,0,52.5,0,20,0,OVER,0,11.1,0,51.3,0
12/1/2004 22:45,21.2,0,54.4,0,20.1,0,OVER,0,10.8,0,52.5,0
12/1/2004 23:00,21.3,0,56.4,0,20.3,0,OVER,0,10.5,0,53.8,0
12/1/2004 23:15,21.5,0,57.6,0,20.4,0,OVER,0,10.4,0,54.3,0
12/1/2004 23:30,21.7,0,62.9,0,20.6,0,OVER,0,10.2,0,54.8,0
12/1/2004 23:45,21.9,0,61.9,0,20.7,0,OVER,0,10.1,0,55.3,0
12/2/2004 0:00,22,0,58.6,0,20.8,0,OVER,0,10,0,55.8,0
12/2/2004 0:15,22,0,55.3,0,20.8,0,OVER,0,9.9,0,55.8,0
12/2/2004 0:30,22,0,53.5,0,20.8,0,OVER,0,9.9,0,55.8,0
12/2/2004 0:45,22,0,52,0,20.7,0,OVER,0,9.8,0,55.8,0
12/2/2004 1:00,22.1,0,50.5,0,20.7,0,OVER,0,9.8,0,55.8,0
12/2/2004 1:15,22.1,0,49.8,0,20.6,0,OVER,0,9.6,0,55.8,0
12/2/2004 1:30,22.1,0,49.2,0,20.6,0,OVER,0,9.5,0,55.8,0
12/2/2004 1:45,22,0,48.2,0,20.5,0,OVER,0,9.3,0,55.8,0
12/2/2004 2:00,22.1,0,47.7,0,20.3,0,OVER,0,9.2,0,55.8,0
12/2/2004 2:15,22.1,0,47.3,0,20.2,0,OVER,0,8.9,0,57.5,0
12/2/2004 2:30,22.1,0,46.7,0,20.1,0,OVER,0,8.7,0,59.3,0
12/2/2004 2:45,22.1,0,46.6,0,20,0,OVER,0,8.4,0,61,0
12/2/2004 3:00,22.1,0,46.1,0,19.9,0,OVER,0,8.2,0,62.8,0
12/2/2004 3:15,22.1,0,45.8,0,19.8,0,OVER,0,8.4,0,60.5,0
12/2/2004 3:30,22,0,45.6,0,19.7,0,OVER,0,8.7,0,58.3,0
12/2/2004 3:45,22,0,45.3,0,19.6,0,OVER,0,8.9,0,56,0
12/2/2004 4:00,22,0,44.9,0,19.6,0,OVER,0,9.2,0,53.8,0
12/2/2004 4:15,22,0,44.9,0,19.5,0,OVER,0,9.2,0,53,0
12/2/2004 4:30,22,0,44.7,0,19.4,0,OVER,0,9.3,0,52.3,0
12/2/2004 4:45,22,0,44.7,0,19.4,0,OVER,0,9.3,0,51.5,0
12/2/2004 5:00,22,0,44.5,0,19.3,0,OVER,0,9.4,0,50.8,0
12/2/2004 5:15,22,0,44.4,0,19.3,0,OVER,0,9.6,0,50.5,0
12/2/2004 5:30,21.9,0,43.9,0,19.2,0,OVER,0,9.8,0,50.3,0
12/2/2004 5:45,21.9,0,44.1,0,19.1,0,OVER,0,10,0,50,0
12/2/2004 6:00,21.9,0,43.8,0,19.1,0,OVER,0,10.2,0,49.8,0
12/2/2004 6:15,21.9,0,43.7,0,19,0,OVER,0,10.4,0,49.3,0
12/2/2004 6:30,21.9,0,43.6,0,19,0,OVER,0,10.5,0,48.8,0
12/2/2004 6:45,21.9,0,43.3,0,18.9,0,OVER,0,10.7,0,48.3,0
12/2/2004 7:00,22,0,43.3,0,18.9,0,OVER,0,10.9,0,47.8,0
12/2/2004 7:15,21.8,0,44.7,0,19,0,OVER,0,11.2,0,46.8,0
12/2/2004 7:30,21.8,0,45.8,0,19,0,OVER,0,11.5,0,45.8,0
12/2/2004 7:45,21.6,0,46.7,0,19,0,OVER,0,11.9,0,44.8,0
12/2/2004 8:00,21.3,0,46.8,0,19,0,OVER,0,12.2,0,43.8,0
12/2/2004 8:15,20.6,0,48.8,0,19,0,OVER,0,12.5,0,42.5,0
12/2/2004 8:30,20.5,0,48.1,0,19,0,OVER,0,12.8,0,41.3,0
12/2/2004 8:45,20.3,0,48.1,0,19.1,0,OVER,0,13.1,0,40,0
12/2/2004 9:00,20.2,0,48,0,19.1,0,OVER,0,13.4,0,38.8,0
12/2/2004 9:15,20.1,0,47.6,0,19.2,0,OVER,0,13.5,0,37.8,0
12/2/2004 9:30,19.9,0,47.6,0,19.3,0,OVER,0,13.6,0,36.8,0
12/2/2004 9:45,19.8,0,47.6,0,19.4,0,OVER,0,13.8,0,35.8,0
12/2/2004 10:00,19.8,0,47.6,0,19.6,0,OVER,0,13.9,0,34.8,0
12/2/2004 10:15,19.7,0,46.8,0,19.7,0,OVER,0,14.1,0,34,0
12/2/2004 10:30,19.6,0,46.9,0,19.8,0,OVER,0,14.3,0,33.3,0
12/2/2004 10:45,19.6,0,46.4,0,19.9,0,OVER,0,14.6,0,32.5,0
12/2/2004 11:00,19.5,0,46.1,0,20.1,0,OVER,0,14.8,0,31.8,0
12/2/2004 11:15,19.5,0,45.9,0,20.3,0,OVER,0,15,0,31.5,0
12/2/2004 11:30,19.5,0,45.7,0,20.6,0,OVER,0,15.1,0,31.3,0
12/2/2004 11:45,19.5,0,45.3,0,20.8,0,OVER,0,15.3,0,31,0
12/2/2004 12:00,19.6,0,45.2,0,21,0,OVER,0,15.5,0,30.8,0
12/2/2004 12:15,19.6,0,44.8,0,21.2,0,OVER,0,15.6,0,30,0
12/2/2004 12:30,19.6,0,44.8,0,21.4,0,OVER,0,15.6,0,29.3,0
12/2/2004 12:45,19.7,0,44.8,0,21.6,0,OVER,0,15.7,0,28.5,0
12/2/2004 13:00,19.7,0,44.7,0,21.8,0,OVER,0,15.8,0,27.8,0
12/2/2004 13:15,19.8,0,44,0,22,0,OVER,0,15.9,0,27.3,0
12/2/2004 13:30,19.8,0,44.1,0,22.2,0,OVER,0,16.1,0,26.8,0
12/2/2004 13:45,20,0,43.5,0,22.4,0,OVER,0,16.2,0,26.3,0
12/2/2004 14:00,20.1,0,43,0,22.5,0,OVER,0,16.4,0,25.8,0
12/2/2004 14:15,20.2,0,42.9,0,22.7,0,OVER,0,16.1,0,26,0
12/2/2004 14:30,20.2,0,42.5,0,22.8,0,OVER,0,15.9,0,26.3,0
12/2/2004 14:45,20.2,0,42.7,0,22.9,0,OVER,0,15.6,0,26.5,0
12/2/2004 15:00,20.1,0,42.7,0,22.9,0,OVER,0,15.4,0,26.8,0
12/2/2004 15:15,20.1,0,42.7,0,22.9,0,OVER,0,15.3,0,26.5,0
12/2/2004 15:30,20.1,0,42.6,0,22.9,0,OVER,0,15.2,0,26.3,0
12/2/2004 15:45,20,0,42.6,0,22.9,0,OVER,0,15.2,0,26,0
12/2/2004 16:00,19.9,0,42.6,0,22.8,0,OVER,0,15.1,0,25.8,0
12/2/2004 16:15,19.7,0,42.4,0,22.6,0,OVER,0,14.9,0,25.8,0
12/2/2004 16:30,19.5,0,41.9,0,22.4,0,OVER,0,14.7,0,25.8,0
12/2/2004 16:45,19.3,0,41.8,0,22.2,0,OVER,0,14.5,0,25.8,0
12/2/2004 17:00,19.2,0,41.9,0,22,0,OVER,0,14.3,0,25.8,0
12/2/2004 17:15,19.1,0,41.8,0,21.9,0,OVER,0,14.2,0,25,0
12/2/2004 17:30,18.9,0,41.7,0,21.7,0,OVER,0,14.1,0,24.3,0
12/2/2004 17:45,18.7,0,42.1,0,21.5,0,OVER,0,14,0,23.5,0
12/2/2004 18:00,18.8,0,42,0,21.3,0,OVER,0,13.9,0,22.8,0
12/2/2004 18:15,19.4,0,44,0,21.2,0,OVER,0,13.6,0,23.8,0
12/2/2004 18:30,20,0,44.5,0,21.2,0,OVER,0,13.2,0,24.8,0
12/2/2004 18:45,20.4,0,44.4,0,21.2,0,OVER,0,12.9,0,25.8,0
12/2/2004 19:00,20.7,0,41.1,0,21.1,0,OVER,0,12.6,0,26.8,0
12/2/2004 19:15,20.8,0,40.8,0,20.9,0,OVER,0,12.4,0,27.5,0
12/2/2004 19:30,21,0,39.8,0,20.9,0,OVER,0,12.1,0,28.3,0
12/2/2004 19:45,21.1,0,38.8,0,20.9,0,OVER,0,11.9,0,29,0
12/2/2004 20:00,21.2,0,38.6,0,20.8,0,OVER,0,11.7,0,29.8,0
12/2/2004 20:15,21.3,0,38.6,0,20.6,0,OVER,0,11.6,0,30,0
12/2/2004 20:30,21,0,42.3,0,20.5,0,OVER,0,11.4,0,30.3,0
12/2/2004 20:45,21.3,0,40.5,0,20.6,0,OVER,0,11.3,0,30.5,0
12/2/2004 21:00,21.3,0,40.4,0,20.4,0,OVER,0,11.2,0,30.8,0
12/2/2004 21:15,21.3,0,43.7,0,20.3,0,OVER,0,11.1,0,31.3,0
12/2/2004 21:30,21.1,0,44.5,0,20.2,0,OVER,0,11,0,31.8,0
12/2/2004 21:45,20.7,0,44.7,0,20.2,0,OVER,0,10.9,0,32.3,0
12/2/2004 22:00,20.5,0,45.1,0,20.2,0,OVER,0,10.8,0,32.8,0
12/2/2004 22:15,20.4,0,45,0,20,0,OVER,0,10.6,0,33,0
12/2/2004 22:30,20.2,0,45,0,19.9,0,OVER,0,10.4,0,33.3,0
12/2/2004 22:45,20.1,0,47.9,0,19.8,0,OVER,0,10.3,0,33.5,0
12/2/2004 23:00,19.9,0,47.7,0,19.7,0,OVER,0,10.1,0,33.8,0
12/2/2004 23:15,19.7,0,47.3,0,19.6,0,OVER,0,9.9,0,34,0
12/2/2004 23:30,19.6,0,47.1,0,19.5,0,OVER,0,9.7,0,34.3,0
12/2/2004 23:45,19.4,0,46.8,0,19.4,0,OVER,0,9.6,0,34.5,0
12/3/2004 0:00,19.3,0,46.7,0,19.3,0,OVER,0,9.4,0,34.8,0
12/3/2004 0:15,19.2,0,46.5,0,19.2,0,OVER,0,9.1,0,36.5,0
12/3/2004 0:30,18.9,0,47,0,19.2,0,OVER,0,8.9,0,38.3,0
12/3/2004 0:45,19.4,0,46.4,0,19.1,0,OVER,0,8.6,0,40,0
12/3/2004 1:00,19.7,0,45.8,0,19.2,0,OVER,0,8.4,0,41.8,0
12/3/2004 1:15,20,0,45.4,0,19.1,0,OVER,0,8.3,0,42.8,0
12/3/2004 1:30,20.2,0,47.9,0,18.9,0,OVER,0,8.2,0,43.8,0
12/3/2004 1:45,20.5,0,48.4,0,18.8,0,OVER,0,8.2,0,44.8,0
12/3/2004 2:00,20.7,0,47.1,0,18.7,0,OVER,0,8.1,0,45.8,0
12/3/2004 2:15,20.9,0,46.1,0,18.6,0,OVER,0,7.8,0,47.3,0
12/3/2004 2:30,20.9,0,44.9,0,18.5,0,OVER,0,7.4,0,48.8,0
12/3/2004 2:45,21.1,0,44.1,0,18.4,0,OVER,0,7.1,0,50.3,0
12/3/2004 3:00,21.1,0,43.2,0,18.3,0,OVER,0,6.8,0,51.8,0
12/3/2004 3:15,21.2,0,42.9,0,18.3,0,OVER,0,6.6,0,52.3,0
12/3/2004 3:30,21.3,0,42.8,0,18.2,0,OVER,0,6.5,0,52.8,0
12/3/2004 3:45,21.3,0,42,0,18.2,0,OVER,0,6.3,0,53.3,0
12/3/2004 4:00,21.4,0,41.8,0,18.1,0,OVER,0,6.2,0,53.8,0
12/3/2004 4:15,21.4,0,41,0,18,0,OVER,0,6.3,0,52.8,0
12/3/2004 4:30,21.4,0,40.7,0,18,0,OVER,0,6.5,0,51.8,0
12/3/2004 4:45,21.4,0,40.4,0,17.9,0,OVER,0,6.6,0,50.8,0
12/3/2004 5:00,21.3,0,40.1,0,17.9,0,OVER,0,6.8,0,49.8,0
12/3/2004 5:15,21.4,0,39.8,0,17.8,0,OVER,0,6.6,0,49.8,0
12/3/2004 5:30,21.4,0,39.3,0,17.8,0,OVER,0,6.4,0,49.8,0
12/3/2004 5:45,21.4,0,39.2,0,17.7,0,OVER,0,6.3,0,49.8,0
12/3/2004 6:00,21.3,0,39.1,0,17.6,0,OVER,0,6.1,0,49.8,0
12/3/2004 6:15,21.4,0,39,0,17.5,0,OVER,0,6.1,0,49.3,0
12/3/2004 6:30,21.2,0,38.7,0,17.4,0,OVER,0,6.1,0,48.8,0
12/3/2004 6:45,21.3,0,39.1,0,17.4,0,OVER,0,6.1,0,48.3,0
12/3/2004 7:00,21,0,39.9,0,17.7,0,OVER,0,6.1,0,47.8,0
12/3/2004 7:15,20.8,0,40.3,0,17.9,0,OVER,0,6.2,0,47.8,0
12/3/2004 7:30,20.7,0,40.8,0,17.9,0,OVER,0,6.2,0,47.8,0
12/3/2004 7:45,20.4,0,42.4,0,17.8,0,OVER,0,6.3,0,47.8,0
12/3/2004 8:00,19.6,0,42.3,0,17.8,0,OVER,0,6.4,0,47.8,0
12/3/2004 8:15,19.2,0,42.8,0,17.8,0,OVER,0,6.8,0,46.8,0
12/3/2004 8:30,19.1,0,42.8,0,17.8,0,OVER,0,7.1,0,45.8,0
12/3/2004 8:45,18.9,0,43,0,17.8,0,OVER,0,7.5,0,44.8,0
12/3/2004 9:00,18.7,0,42.8,0,17.8,0,OVER,0,7.9,0,43.8,0
12/3/2004 9:15,18.5,0,42.8,0,17.9,0,OVER,0,8.1,0,42.5,0
12/3/2004 9:30,18.3,0,42.9,0,17.9,0,OVER,0,8.4,0,41.3,0
12/3/2004 9:45,18.2,0,42.9,0,18,0,OVER,0,8.6,0,40,0
12/3/2004 10:00,18.2,0,43,0,18.2,0,OVER,0,8.9,0,38.8,0
12/3/2004 10:15,18.1,0,43.2,0,18.3,0,OVER,0,9.4,0,38,0
12/3/2004 10:30,18,0,43.2,0,18.4,0,OVER,0,10,0,37.3,0
12/3/2004 10:45,17.9,0,43.2,0,18.5,0,OVER,0,10.5,0,36.5,0
12/3/2004 11:00,17.9,0,43.2,0,18.6,0,OVER,0,11.1,0,35.8,0
12/3/2004 11:15,17.9,0,43.2,0,18.8,0,OVER,0,11.7,0,35.8,0
12/3/2004 11:30,17.9,0,43.2,0,19,0,OVER,0,12.4,0,35.8,0
12/3/2004 11:45,17.9,0,43,0,19.2,0,OVER,0,13,0,35.8,0
12/3/2004 12:00,17.9,0,42.8,0,19.4,0,OVER,0,13.7,0,35.8,0
12/3/2004 12:15,18,0,42.8,0,19.6,0,OVER,0,13.9,0,37.3,0
12/3/2004 12:30,18,0,43,0,19.8,0,OVER,0,14.1,0,38.8,0
12/3/2004 12:45,18.1,0,43.2,0,20,0,OVER,0,14.3,0,40.3,0
12/3/2004 13:00,18.2,0,43.5,0,20.2,0,OVER,0,14.5,0,41.8,0
12/3/2004 13:15,18.3,0,43.6,0,20.4,0,OVER,0,14.6,0,44,0
12/3/2004 13:30,18.4,0,43.7,0,20.6,0,OVER,0,14.7,0,46.3,0
12/3/2004 13:45,18.5,0,43.7,0,20.9,0,OVER,0,14.8,0,48.5,0
12/3/2004 14:00,18.7,0,43.8,0,21.1,0,OVER,0,14.9,0,50.8,0
12/3/2004 14:15,18.9,0,43.6,0,21.3,0,OVER,0,15.2,0,51.5,0
12/3/2004 14:30,19.5,0,42.6,0,21.5,0,OVER,0,15.5,0,52.3,0
12/3/2004 14:45,19.3,0,43.6,0,21.5,0,OVER,0,15.9,0,53,0
12/3/2004 15:00,19.3,0,43.9,0,21.5,0,OVER,0,16.2,0,53.8,0
12/3/2004 15:15,19.4,0,44,0,21.5,0,OVER,0,16.3,0,55,0
12/3/2004 15:30,19.4,0,44.1,0,21.5,0,OVER,0,16.4,0,56.3,0
12/3/2004 15:45,19.5,0,44.3,0,21.5,0,OVER,0,16.5,0,57.5,0
12/3/2004 16:00,19.4,0,44.8,0,21.3,0,OVER,0,16.6,0,58.8,0
12/3/2004 16:15,19.4,0,45.2,0,21.2,0,OVER,0,16.5,0,56.5,0
12/3/2004 16:30,19.3,0,45.5,0,21.1,0,OVER,0,16.4,0,54.3,0
12/3/2004 16:45,19.2,0,45.5,0,20.9,0,OVER,0,16.4,0,52,0
12/3/2004 17:00,19.1,0,45.4,0,20.8,0,OVER,0,16.3,0,49.8,0
12/3/2004 17:15,18.8,0,45.1,0,20.6,0,OVER,0,15.7,0,47.8,0
12/3/2004 17:30,18.5,0,46.5,0,20.5,0,OVER,0,15,0,45.8,0
12/3/2004 17:45,18.2,0,46.9,0,20.4,0,OVER,0,14.4,0,43.8,0
12/3/2004 18:00,18.3,0,46.8,0,20.2,0,OVER,0,13.8,0,41.8,0
12/3/2004 18:15,18.9,0,46.1,0,20.1,0,OVER,0,13.5,0,42.3,0
12/3/2004 18:30,19.4,0,45.4,0,20.2,0,OVER,0,13.2,0,42.8,0
12/3/2004 18:45,19.2,0,44.5,0,20.1,0,OVER,0,12.9,0,43.3,0
12/3/2004 19:00,19,0,44.9,0,20,0,OVER,0,12.6,0,43.8,0
12/3/2004 19:15,18.7,0,45.1,0,19.9,0,OVER,0,12.6,0,43.8,0
12/3/2004 19:30,18.6,0,45.4,0,19.9,0,OVER,0,12.5,0,43.8,0
12/3/2004 19:45,18.4,0,45.6,0,19.8,0,OVER,0,12.5,0,43.8,0
12/3/2004 20:00,18.2,0,45.7,0,19.7,0,OVER,0,12.5,0,43.8,0
12/3/2004 20:15,18.2,0,45.9,0,19.6,0,OVER,0,12.4,0,43.3,0
12/3/2004 20:30,18.9,0,48.7,0,19.6,0,OVER,0,12.2,0,42.8,0
12/3/2004 20:45,19.4,0,48.9,0,19.5,0,OVER,0,12.1,0,42.3,0
12/3/2004 21:00,19.6,0,47.4,0,19.5,0,OVER,0,12,0,41.8,0
12/3/2004 21:15,19.6,0,47.2,0,19.5,0,OVER,0,11.8,0,42.3,0
12/3/2004 21:30,19.8,0,47.6,0,19.4,0,OVER,0,11.6,0,42.8,0
12/3/2004 21:45,20.1,0,46.9,0,19.4,0,OVER,0,11.4,0,43.3,0
12/3/2004 22:00,20.4,0,48.8,0,19.4,0,OVER,0,11.2,0,43.8,0
12/3/2004 22:15,20.6,0,47.1,0,19.5,0,OVER,0,11.1,0,43.3,0
12/3/2004 22:30,20.8,0,48.2,0,19.5,0,OVER,0,10.9,0,42.8,0
12/3/2004 22:45,20.9,0,46.2,0,19.5,0,OVER,0,10.8,0,42.3,0
12/3/2004 23:00,21.1,0,46.4,0,19.6,0,OVER,0,10.7,0,41.8,0
12/3/2004 23:15,21.2,0,45.9,0,19.7,0,OVER,0,10.6,0,42.5,0
12/3/2004 23:30,21.3,0,45.3,0,19.8,0,OVER,0,10.4,0,43.3,0
12/3/2004 23:45,21.4,0,44.8,0,19.9,0,OVER,0,10.3,0,44,0
12/4/2004 0:00,21.5,0,44.6,0,19.9,0,OVER,0,10.2,0,44.8,0
12/4/2004 0:15,21.6,0,45.7,0,20,0,OVER,0,10.2,0,44.3,0
12/4/2004 0:30,21.7,0,44.7,0,20,0,OVER,0,10.3,0,43.8,0
12/4/2004 0:45,21.7,0,44.5,0,20.1,0,OVER,0,10.3,0,43.3,0
12/4/2004 1:00,21.2,0,44.5,0,19.9,0,OVER,0,10.4,0,42.8,0
12/4/2004 1:15,20.8,0,44.9,0,19.7,0,OVER,0,10.4,0,43.3,0
12/4/2004 1:30,20.4,0,45.5,0,19.6,0,OVER,0,10.4,0,43.8,0
12/4/2004 1:45,20.1,0,45.7,0,19.5,0,OVER,0,10.5,0,44.3,0
12/4/2004 2:00,19.7,0,46.3,0,19.5,0,OVER,0,10.5,0,44.8,0
12/4/2004 2:15,19.5,0,46.6,0,19.4,0,OVER,0,10.3,0,46,0
12/4/2004 2:30,19.3,0,47,0,19.3,0,OVER,0,10.1,0,47.3,0
12/4/2004 2:45,19,0,47.5,0,19.3,0,OVER,0,10,0,48.5,0
12/4/2004 3:00,18.8,0,47.7,0,19.2,0,OVER,0,9.8,0,49.8,0
12/4/2004 3:15,18.6,0,48.1,0,19.2,0,OVER,0,9.4,0,50.3,0
12/4/2004 3:30,18.3,0,48.4,0,19.1,0,OVER,0,9.1,0,50.8,0
12/4/2004 3:45,18.2,0,48.5,0,19.1,0,OVER,0,8.7,0,51.3,0
12/4/2004 4:00,18,0,48.8,0,19,0,OVER,0,8.4,0,51.8,0
12/4/2004 4:15,17.8,0,49,0,19,0,OVER,0,8.4,0,52.5,0
12/4/2004 4:30,17.6,0,49.3,0,18.9,0,OVER,0,8.3,0,53.3,0
12/4/2004 4:45,17.4,0,49.6,0,18.9,0,OVER,0,8.3,0,54,0
12/4/2004 5:00,17.2,0,50,0,18.8,0,OVER,0,8.3,0,54.8,0
12/4/2004 5:15,17,0,50.1,0,18.8,0,OVER,0,8.2,0,54.3,0
12/4/2004 5:30,16.9,0,50.3,0,18.7,0,OVER,0,8.2,0,53.8,0
12/4/2004 5:45,16.7,0,50.4,0,18.6,0,OVER,0,8.1,0,53.3,0
12/4/2004 6:00,16.7,0,50,0,18.5,0,OVER,0,8.1,0,52.8,0
12/4/2004 6:15,17.4,0,49.3,0,18.4,0,OVER,0,8.1,0,53.5,0
12/4/2004 6:30,18,0,48,0,18.4,0,OVER,0,8,0,54.3,0
12/4/2004 6:45,18.4,0,49.1,0,18.5,0,OVER,0,8,0,55,0
12/4/2004 7:00,18.7,0,48.4,0,18.4,0,OVER,0,8,0,55.8,0
12/4/2004 7:15,19,0,47.7,0,18.4,0,OVER,0,8.2,0,55,0
12/4/2004 7:30,19.2,0,47.7,0,18.4,0,OVER,0,8.5,0,54.3,0
12/4/2004 7:45,19.3,0,48.5,0,18.4,0,OVER,0,8.7,0,53.5,0
12/4/2004 8:00,19.2,0,49,0,18.3,0,OVER,0,9,0,52.8,0
12/4/2004 8:15,19.2,0,49.8,0,18.2,0,OVER,0,9.1,0,52,0
12/4/2004 8:30,18.9,0,49.6,0,18.2,0,OVER,0,9.2,0,51.3,0
12/4/2004 8:45,18.8,0,49,0,18.1,0,OVER,0,9.4,0,50.5,0
12/4/2004 9:00,18.6,0,49.2,0,18.1,0,OVER,0,9.5,0,49.8,0
12/4/2004 9:15,18.4,0,49.3,0,18,0,OVER,0,9.9,0,48,0
12/4/2004 9:30,18.3,0,49.3,0,18,0,OVER,0,10.4,0,46.3,0
12/4/2004 9:45,18.2,0,49.6,0,18,0,OVER,0,10.8,0,44.5,0
12/4/2004 10:00,18.1,0,49.3,0,17.9,0,OVER,0,11.3,0,42.8,0
12/4/2004 10:15,18.1,0,49.4,0,18,0,OVER,0,11.5,0,42.8,0
12/4/2004 10:30,18,0,49.4,0,18,0,OVER,0,11.8,0,42.8,0
12/4/2004 10:45,17.9,0,49.4,0,18,0,OVER,0,12,0,42.8,0
12/4/2004 11:00,17.9,0,49.6,0,18,0,OVER,0,12.3,0,42.8,0
12/4/2004 11:15,17.8,0,49.6,0,18,0,OVER,0,12.3,0,43,0
12/4/2004 11:30,17.8,0,49.8,0,18.1,0,OVER,0,12.4,0,43.3,0
12/4/2004 11:45,17.7,0,49.6,0,18.1,0,OVER,0,12.4,0,43.5,0
12/4/2004 12:00,17.7,0,49.9,0,18.1,0,OVER,0,12.5,0,43.8,0
12/4/2004 12:15,17.6,0,49.9,0,18.1,0,OVER,0,12.6,0,43.5,0
12/4/2004 12:30,17.6,0,49.8,0,18.1,0,OVER,0,12.8,0,43.3,0
12/4/2004 12:45,17.6,0,49.6,0,18.1,0,OVER,0,12.9,0,43,0
12/4/2004 13:00,17.5,0,49.9,0,18.1,0,OVER,0,13.1,0,42.8,0
12/4/2004 13:15,17.5,0,49.7,0,18.1,0,OVER,0,13.1,0,42.5,0
12/4/2004 13:30,17.5,0,49.8,0,18.1,0,OVER,0,13.2,0,42.3,0
12/4/2004 13:45,17.5,0,49.4,0,18.2,0,OVER,0,13.2,0,42,0
12/4/2004 14:00,17.4,0,49.8,0,18.2,0,OVER,0,13.3,0,41.8,0
12/4/2004 14:15,17.4,0,49.4,0,18.2,0,OVER,0,13.4,0,42,0
12/4/2004 14:30,17.4,0,49.6,0,18.2,0,OVER,0,13.6,0,42.3,0
12/4/2004 14:45,17.3,0,49.8,0,18.2,0,OVER,0,13.7,0,42.5,0
12/4/2004 15:00,17.3,0,49.7,0,18.2,0,OVER,0,13.9,0,42.8,0
12/4/2004 15:15,17.3,0,49.7,0,18.2,0,OVER,0,13.9,0,43,0
12/4/2004 15:30,17.2,0,49.7,0,18.2,0,OVER,0,13.9,0,43.3,0
12/4/2004 15:45,17.2,0,49.9,0,18.2,0,OVER,0,13.9,0,43.5,0
12/4/2004 16:00,17.1,0,49.8,0,18.1,0,OVER,0,13.9,0,43.8,0
12/4/2004 16:15,17.1,0,49.8,0,18.1,0,OVER,0,13.9,0,43.8,0
12/4/2004 16:30,17.1,0,49.7,0,18.1,0,OVER,0,13.8,0,43.8,0
12/4/2004 16:45,17,0,49.7,0,18,0,OVER,0,13.8,0,43.8,0
12/4/2004 17:00,17,0,49.8,0,18,0,OVER,0,13.8,0,43.8,0
12/4/2004 17:15,16.9,0,49.7,0,18,0,OVER,0,13.1,0,51.1,0
12/4/2004 17:30,16.9,0,49.7,0,18,0,OVER,0,12.4,0,58.3,0
12/4/2004 17:45,16.9,0,49.8,0,17.9,0,OVER,0,11.8,0,65.6,0
12/4/2004 18:00,16.9,0,49.8,0,17.9,0,OVER,0,11.1,0,72.8,0
12/4/2004 18:15,17.7,0,48.6,0,17.9,0,OVER,0,11.2,0,73.1,0
12/4/2004 18:30,18.2,0,47.7,0,18.1,0,OVER,0,11.2,0,73.3,0
12/4/2004 18:45,18.7,0,46.7,0,18.2,0,OVER,0,11.3,0,73.6,0
12/4/2004 19:00,19,0,47.2,0,18.4,0,OVER,0,11.4,0,73.8,0
12/4/2004 19:15,19.4,0,47.7,0,18.5,0,OVER,0,11.3,0,74.8,0
12/4/2004 19:30,19.7,0,47.7,0,18.6,0,OVER,0,11.2,0,75.8,0
12/4/2004 19:45,20,0,47.6,0,18.9,0,OVER,0,11.2,0,76.8,0
12/4/2004 20:00,19.9,0,46.9,0,19.2,0,OVER,0,11.1,0,77.8,0
12/4/2004 20:15,19.9,0,46.9,0,19.2,0,OVER,0,11,0,78.1,0
12/4/2004 20:30,19.7,0,46.8,0,19.2,0,OVER,0,10.9,0,78.3,0
12/4/2004 20:45,19.6,0,48.8,0,19.2,0,OVER,0,10.9,0,78.6,0
12/4/2004 21:00,19.5,0,51.2,0,19.2,0,OVER,0,10.8,0,78.8,0
12/4/2004 21:15,19.4,0,50.6,0,19.1,0,OVER,0,10.7,0,79.3,0
12/4/2004 21:30,19.2,0,50.2,0,19.1,0,OVER,0,10.6,0,79.8,0
12/4/2004 21:45,19,0,49.7,0,19.1,0,OVER,0,10.6,0,80.3,0
12/4/2004 22:00,18.9,0,49.5,0,19,0,OVER,0,10.5,0,80.8,0
12/4/2004 22:15,19.2,0,48.9,0,19,0,OVER,0,10.3,0,81.8,0
12/4/2004 22:30,19.6,0,49.2,0,19.2,0,OVER,0,10,0,82.8,0
12/4/2004 22:45,20,0,54.1,0,19.3,0,OVER,0,9.8,0,83.8,0
12/4/2004 23:00,20.3,0,53.1,0,19.2,0,OVER,0,9.6,0,84.8,0
12/4/2004 23:15,20.6,0,53.8,0,19.2,0,OVER,0,9.5,0,85.6,0
12/4/2004 23:30,20.8,0,54.4,0,19.3,0,OVER,0,9.5,0,86.3,0
12/4/2004 23:45,20.9,0,54.9,0,19.6,0,OVER,0,9.4,0,87.1,0
12/5/2004 0:00,21.1,0,56.3,0,19.8,0,OVER,0,9.4,0,87.8,0
12/5/2004 0:15,21.3,0,56.7,0,20,0,OVER,0,9.4,0,88.3,0
12/5/2004 0:30,21.4,0,54.8,0,20.2,0,OVER,0,9.3,0,88.8,0
12/5/2004 0:45,21.5,0,52.7,0,20.2,0,OVER,0,9.3,0,89.3,0
12/5/2004 1:00,21.6,0,51.1,0,20.3,0,OVER,0,9.3,0,89.8,0
12/5/2004 1:15,21.4,0,50.2,0,20.3,0,OVER,0,9.2,0,89.8,0
12/5/2004 1:30,21.1,0,50.1,0,20.2,0,OVER,0,9.2,0,89.8,0
12/5/2004 1:45,20.8,0,50.2,0,20.1,0,OVER,0,9.1,0,89.8,0
12/5/2004 2:00,20.4,0,50.5,0,20.1,0,OVER,0,9.1,0,89.8,0
12/5/2004 2:15,20.1,0,51,0,20.1,0,OVER,0,9,0,90.1,0
12/5/2004 2:30,19.9,0,51.4,0,20.1,0,OVER,0,9,0,90.3,0
12/5/2004 2:45,19.7,0,51.7,0,20.2,0,OVER,0,8.9,0,90.6,0
12/5/2004 3:00,19.5,0,52.1,0,20.2,0,OVER,0,8.9,0,90.8,0
12/5/2004 3:15,19.4,0,52.4,0,20.2,0,OVER,0,8.9,0,91.1,0
12/5/2004 3:30,19.2,0,52.8,0,20.3,0,OVER,0,8.8,0,91.3,0
12/5/2004 3:45,19,0,53,0,20.3,0,OVER,0,8.8,0,91.6,0
12/5/2004 4:00,18.9,0,53.5,0,20.2,0,OVER,0,8.8,0,91.8,0
12/5/2004 4:15,18.7,0,54.2,0,20.1,0,OVER,0,12,0,90.6,0
12/5/2004 4:30,18.6,0,54.6,0,20.1,0,OVER,0,15.2,0,89.3,0
12/5/2004 4:45,18.5,0,55,0,20,0,OVER,0,18.5,0,88.1,0
12/5/2004 5:00,18.3,0,55.3,0,20,0,OVER,0,21.7,0,86.8,0
12/5/2004 5:15,18.2,0,55.7,0,20,0,OVER,0,21.8,0,86.6,0
12/5/2004 5:30,18.2,0,55.9,0,20.1,0,OVER,0,22,0,86.3,0
12/5/2004 5:45,18.4,0,56.3,0,20.3,0,OVER,0,22.1,0,86.1,0
12/5/2004 6:00,18.6,0,58.3,0,20.5,0,OVER,0,22.3,0,85.8,0
12/5/2004 6:15,19.3,0,60.1,0,20.8,0,OVER,0,22.5,0,84.1,0
12/5/2004 6:30,20,0,61.1,0,21.1,0,OVER,0,22.7,0,82.3,0
12/5/2004 6:45,20.7,0,64.9,0,21.3,0,OVER,0,23,0,80.6,0
12/5/2004 7:00,21.3,0,66.6,0,21.6,0,OVER,0,23.2,0,78.8,0
12/5/2004 7:15,21.6,0,63.7,0,21.8,0,OVER,0,21.1,0,79.3,0
12/5/2004 7:30,21.8,0,62.5,0,21.6,0,OVER,0,18.9,0,79.8,0
12/5/2004 7:45,21.8,0,60.4,0,21.4,0,OVER,0,16.8,0,80.3,0
12/5/2004 8:00,21.8,0,59.7,0,21.2,0,OVER,0,14.7,0,80.8,0